Akron Canton, OH

4:55 PM EDT on May 26, 2018 (GMT -0400)
Akron-Canton Regional

Weather History for KCAK - September, 1959

Change the Weather History Date:

Wednesday, September 23, 1959

  Actual Average Record
Temperature  
Mean Temperature 74 °F 60 °F  
Max Temperature 84 °F 70 °F 91 °F (1936)
Min Temperature 63 °F 51 °F 35 °F (1974)
Degree Days  
Heating Degree Days 0 6  
Month to date heating degree days 68  
Since 1 July heating degree days 88  
Cooling Degree Days 8 1  
Month to date cooling degree days 58  
Year to date cooling degree days 640  
Growing Degree Days 24 (Base 50)    
Moisture  
Dew Point 58 °F    
Average Humidity 62    
Maximum Humidity 90    
Minimum Humidity 35    
Precipitation  
Precipitation 0.00 in 0.11 in 1.27 in (2000)
Month to date precipitation 2.69  
Year to date precipitation 29.89  
Snow  
Snow 0.00 in 0.00 in - ()
Month to date snowfall 0.0  
Since 1 July snowfall 0.0  
Since 1 September snowfall 0.0  
Snow Depth -    
Sea Level Pressure  
Sea Level Pressure 30.17 in    
Wind  
Wind Speed 10 mph (SSW)    
Max Wind Speed 17 mph    
Max Gust Speed -    
Visibility 12 miles    
Events      
T = Trace of Precipitation, MM = Missing Value Source: NWS Daily Summary

Daily Weather History Graph

Daily Weather History Graph

Search for Another Location

Airport or City:

Astronomy

Sep. 23, 1959 Rise Set
Actual Time 7:13 AM EDT 7:22 PM EDT
Civil Twilight 6:46 AM EDT 7:49 PM EDT
Nautical Twilight 6:14 AM EDT 8:21 PM EDT
Astronomical Twilight 5:41 AM EDT 8:54 PM EDT
Moon 11:30 PM EDT (9/23) 1:18 PM EDT (9/23)
Length of Visible Light 13h 03m
Length of Day
12h 08m
Waning Gibbous, 63% of the Moon is Illuminated
Sep 23
Waning Gibbous
Sep 24
Last Quarter
Oct 2
New
Oct 9
First Quarter
Oct 16
Full

Hourly Weather History & Observations

Time (EDT) Temp. Heat Index Dew Point Humidity Pressure Visibility Wind Dir Wind Speed Gust Speed Precip Events Conditions
12:00 AM 71.1 °F - 63.0 °F 75% 30.12 in 10.0 mi South 11.5 mph - N/A   Drizzle
1:00 AM 70.0 °F - 62.1 °F 76% 30.13 in 10.0 mi South 8.1 mph - N/A   Drizzle
2:00 AM 69.1 °F - 62.1 °F 78% 30.14 in 10.0 mi South 8.1 mph - N/A   Drizzle
3:00 AM 68.0 °F - 62.1 °F 81% 30.13 in 10.0 mi South 10.4 mph - N/A   Drizzle
4:00 AM 66.9 °F - 60.1 °F 79% 30.13 in 10.0 mi SSW 11.5 mph - N/A   Drizzle
5:00 AM 66.0 °F - 60.1 °F 81% 30.16 in 8.0 mi SSW 8.1 mph - N/A   Drizzle
6:00 AM 64.9 °F - 59.0 °F 81% 30.17 in 10.0 mi SW 6.9 mph - N/A   Drizzle
7:00 AM 64.0 °F - 60.1 °F 87% 30.20 in 7.0 mi SSW 5.8 mph - N/A   Drizzle
8:00 AM 63.0 °F - 60.1 °F 90% 30.22 in 8.0 mi South 5.8 mph - N/A   Drizzle
9:00 AM 66.9 °F - 61.0 °F 81% 30.22 in 8.0 mi South 10.4 mph - N/A   Drizzle
10:00 AM 71.1 °F - 60.1 °F 68% 30.22 in 9.0 mi SSW 11.5 mph - N/A   Drizzle
11:00 AM 77.0 °F - 61.0 °F 58% 30.22 in 10.0 mi SW 13.8 mph - N/A   Drizzle
12:00 PM 79.0 °F - 61.0 °F 54% 30.22 in 15.0 mi SSW 11.5 mph - N/A   Drizzle
1:00 PM 79.0 °F - 57.0 °F 47% 30.21 in 15.0 mi WSW 17.3 mph - N/A   Drizzle
2:00 PM 82.0 °F 82.1 °F 59.0 °F 45% 30.20 in 15.0 mi WSW 13.8 mph - N/A   Drizzle
3:00 PM 82.9 °F 82.8 °F 59.0 °F 44% 30.18 in 15.0 mi SW 11.5 mph - N/A   Drizzle
4:00 PM 82.9 °F 82.1 °F 55.9 °F 39% 30.16 in 15.0 mi SSW 11.5 mph - N/A   Drizzle
5:00 PM 84.0 °F 83.0 °F 55.9 °F 38% 30.15 in 15.0 mi SSW 13.8 mph - N/A   Drizzle
6:00 PM 82.0 °F - 52.0 °F 35% 30.14 in 15.0 mi SSW 13.8 mph - N/A   Drizzle
7:00 PM 79.0 °F - 53.1 °F 40% 30.14 in 15.0 mi SSW 8.1 mph - N/A   Drizzle
8:00 PM 75.0 °F - 54.0 °F 48% 30.14 in 15.0 mi South 11.5 mph - N/A   Drizzle
9:00 PM 73.0 °F - 53.1 °F 49% 30.16 in 15.0 mi South 11.5 mph - N/A   Drizzle
10:00 PM 71.1 °F - 55.9 °F 59% 30.18 in 15.0 mi South 11.5 mph - N/A   Drizzle
11:00 PM 70.0 °F - 55.9 °F 61% 30.18 in 15.0 mi South 10.4 mph - N/A   Drizzle